Location: Bun Machan
(52.1403°N, 7.3744°W)
Time: 01:44:29
(UTC+00:00)

IDEFIX/ARIANE 42P - Pass Details

Date: 14 July 2020
Orbit: 784 x 804 km, 98.4° (Epoch: 11 August)

Event Time Altitude Azimuth Distance (km) Brightness Sun altitude
Rises 03:31:52 0° 17° (NNE) 3,297 7.2 -6.8°
Reaches altitude 10° 03:34:15 10° 22° (NNE) 2,361 6.4 -6.6°
Maximum altitude 03:39:23 56° 100° (E) 938 3.2 -6.1°
Drops below altitude 10° 03:44:27 10° 179° (S) 2,339 4.6 -5.5°
Sets 03:46:48 0° 184° (S) 3,263 5.3 -5.3°
